Time,TemperatureF,DewpointF,PressureIn,WindDirection,WindDirectionDegrees,WindSpeedMPH,WindSpeedGustMPH,Humidity,HourlyPrecipIn,Conditions,Clouds,dailyrainin,SolarRadiationWatts/m^2,SoftwareType,DateUTC
2013-02-02 00:02:00,22.0,18.2,30.48,NE,40,0.0,0.0,85,0.00,,,0.00,0,Wunderground v.1.15,2013-02-02 07:02:00,
2013-02-02 00:08:00,21.8,18.0,30.48,NE,40,0.0,0.0,85,0.00,,,0.00,0,Wunderground v.1.15,2013-02-02 07:08:00,
2013-02-02 00:14:00,21.5,17.7,30.48,NE,40,0.0,0.0,85,0.00,,,0.00,0,Wunderground v.1.15,2013-02-02 07:14:00,
2013-02-02 00:20:00,21.2,17.4,30.49,NE,40,0.0,0.0,85,0.00,,,0.00,0,Wunderground v.1.15,2013-02-02 07:20:00,
2013-02-02 00:25:00,21.1,17.3,30.49,NE,40,0.0,0.0,85,0.00,,,0.00,0,Wunderground v.1.15,2013-02-02 07:25:00,
2013-02-02 00:31:00,21.0,17.2,30.49,NE,40,0.0,0.0,85,0.00,,,0.00,0,Wunderground v.1.15,2013-02-02 07:31:00,
2013-02-02 00:37:00,21.1,17.3,30.49,NE,40,0.0,0.0,85,0.00,,,0.00,0,Wunderground v.1.15,2013-02-02 07:37:00,
2013-02-02 00:42:00,21.2,17.4,30.49,NE,40,0.0,0.0,85,0.00,,,0.00,0,Wunderground v.1.15,2013-02-02 07:42:00,
2013-02-02 00:48:00,21.3,17.8,30.49,NE,40,0.0,0.0,86,0.00,,,0.00,0,Wunderground v.1.15,2013-02-02 07:48:00,
2013-02-02 00:53:00,21.1,17.3,30.49,NE,40,0.0,0.0,85,0.00,,,0.00,0,Wunderground v.1.15,2013-02-02 07:53:00,
2013-02-02 00:59:00,21.1,17.6,30.49,NE,40,0.0,0.0,86,0.00,,,0.00,0,Wunderground v.1.15,2013-02-02 07:59:00,
2013-02-02 01:06:00,21.3,17.8,30.49,NE,40,0.0,0.0,86,0.00,,,0.00,0,Wunderground v.1.15,2013-02-02 08:06:00,
2013-02-02 01:12:00,21.6,18.1,30.49,NE,40,0.0,0.0,86,0.00,,,0.00,0,Wunderground v.1.15,2013-02-02 08:12:00,
2013-02-02 01:18:00,21.6,18.1,30.49,NE,40,0.0,0.0,86,0.00,,,0.00,0,Wunderground v.1.15,2013-02-02 08:18:00,
2013-02-02 01:24:00,21.5,17.7,30.49,NE,40,0.0,0.0,85,0.00,,,0.00,0,Wunderground v.1.15,2013-02-02 08:24:00,
2013-02-02 01:30:00,21.5,18.0,30.49,NE,40,0.0,0.0,86,0.00,,,0.00,0,Wunderground v.1.15,2013-02-02 08:30:00,
2013-02-02 01:35:00,21.6,18.1,30.49,NE,40,0.0,0.0,86,0.00,,,0.00,0,Wunderground v.1.15,2013-02-02 08:35:00,
2013-02-02 01:41:00,21.3,17.5,30.48,NE,40,0.0,0.0,85,0.00,,,0.00,0,Wunderground v.1.15,2013-02-02 08:41:00,
2013-02-02 01:47:00,21.1,17.3,30.48,NE,40,0.0,0.0,85,0.00,,,0.00,0,Wunderground v.1.15,2013-02-02 08:47:00,
2013-02-02 01:53:00,20.9,17.1,30.49,NE,40,0.0,0.0,85,0.00,,,0.00,0,Wunderground v.1.15,2013-02-02 08:53:00,
2013-02-02 01:59:00,20.7,16.9,30.49,NE,40,0.0,0.0,85,0.00,,,0.00,0,Wunderground v.1.15,2013-02-02 08:59:00,
2013-02-02 02:04:00,20.6,16.8,30.49,NE,40,0.0,0.0,85,0.00,,,0.00,0,Wunderground v.1.15,2013-02-02 09:04:00,
2013-02-02 02:09:00,20.4,16.6,30.49,NE,40,0.0,0.0,85,0.00,,,0.00,0,Wunderground v.1.15,2013-02-02 09:09:00,
2013-02-02 02:14:00,20.4,16.6,30.49,NE,40,0.0,0.0,85,0.00,,,0.00,0,Wunderground v.1.15,2013-02-02 09:14:00,
2013-02-02 02:19:00,20.3,16.5,30.49,NE,40,0.0,0.0,85,0.00,,,0.00,0,Wunderground v.1.15,2013-02-02 09:19:00,
2013-02-02 02:24:00,20.2,16.4,30.49,NE,40,0.0,0.0,85,0.00,,,0.00,0,Wunderground v.1.15,2013-02-02 09:24:00,
2013-02-02 02:29:00,20.4,16.9,30.49,NE,40,0.0,0.0,86,0.00,,,0.00,0,Wunderground v.1.15,2013-02-02 09:29:00,
2013-02-02 02:34:00,20.6,17.1,30.49,NE,40,0.0,0.0,86,0.00,,,0.00,0,Wunderground v.1.15,2013-02-02 09:34:00,
2013-02-02 02:39:00,20.6,16.8,30.49,NE,40,0.0,0.0,85,0.00,,,0.00,0,Wunderground v.1.15,2013-02-02 09:39:00,
2013-02-02 02:44:00,20.5,16.7,30.49,NE,40,0.0,0.0,85,0.00,,,0.00,0,Wunderground v.1.15,2013-02-02 09:44:00,
2013-02-02 02:49:00,20.3,16.5,30.49,NE,40,0.0,0.0,85,0.00,,,0.00,0,Wunderground v.1.15,2013-02-02 09:49:00,
2013-02-02 02:54:00,20.2,16.4,30.49,NE,40,0.0,0.0,85,0.00,,,0.00,0,Wunderground v.1.15,2013-02-02 09:54:00,
2013-02-02 02:59:00,19.7,15.6,30.49,NE,40,0.0,0.0,84,0.00,,,0.00,0,Wunderground v.1.15,2013-02-02 09:59:00,
2013-02-02 03:04:00,19.7,15.9,30.49,NE,40,0.0,0.0,85,0.00,,,0.00,0,Wunderground v.1.15,2013-02-02 10:04:00,
2013-02-02 03:09:00,19.7,15.9,30.49,NE,40,0.0,0.0,85,0.00,,,0.00,0,Wunderground v.1.15,2013-02-02 10:09:00,
2013-02-02 03:14:00,19.5,15.7,30.49,NE,40,0.0,0.0,85,0.00,,,0.00,0,Wunderground v.1.15,2013-02-02 10:14:00,
2013-02-02 03:19:00,19.5,15.7,30.49,NE,40,0.0,0.0,85,0.00,,,0.00,0,Wunderground v.1.15,2013-02-02 10:19:00,
2013-02-02 03:24:00,19.7,15.9,30.49,NE,40,0.0,0.0,85,0.00,,,0.00,0,Wunderground v.1.15,2013-02-02 10:24:00,
2013-02-02 03:29:00,19.6,15.8,30.49,NE,40,0.0,0.0,85,0.00,,,0.00,0,Wunderground v.1.15,2013-02-02 10:29:00,
2013-02-02 03:34:00,19.3,15.3,30.49,NE,40,0.0,0.0,84,0.00,,,0.00,0,Wunderground v.1.15,2013-02-02 10:34:00,
2013-02-02 03:39:00,19.2,15.2,30.49,NE,40,0.0,0.0,84,0.00,,,0.00,0,Wunderground v.1.15,2013-02-02 10:39:00,
2013-02-02 03:44:00,19.3,15.5,30.50,NE,40,0.0,0.0,85,0.00,,,0.00,0,Wunderground v.1.15,2013-02-02 10:44:00,
2013-02-02 03:49:00,19.5,15.7,30.49,NE,40,0.0,0.0,85,0.00,,,0.00,0,Wunderground v.1.15,2013-02-02 10:49:00,
2013-02-02 03:54:00,19.1,15.1,30.49,NE,40,0.0,0.0,84,0.00,,,0.00,0,Wunderground v.1.15,2013-02-02 10:54:00,
2013-02-02 03:59:00,18.9,14.9,30.49,NE,40,0.0,0.0,84,0.00,,,0.00,0,Wunderground v.1.15,2013-02-02 10:59:00,
2013-02-02 04:04:00,18.8,14.8,30.49,NE,40,0.0,0.0,84,0.00,,,0.00,0,Wunderground v.1.15,2013-02-02 11:04:00,
2013-02-02 04:09:00,18.7,14.7,30.49,NE,40,0.0,0.0,84,0.00,,,0.00,0,Wunderground v.1.15,2013-02-02 11:09:00,
2013-02-02 04:15:00,18.7,14.7,30.49,NE,40,0.0,0.0,84,0.00,,,0.00,0,Wunderground v.1.15,2013-02-02 11:15:00,
2013-02-02 04:20:00,18.8,14.8,30.49,NE,40,0.0,0.0,84,0.00,,,0.00,0,Wunderground v.1.15,2013-02-02 11:20:00,
2013-02-02 04:25:00,18.9,14.9,30.49,NE,40,0.0,0.0,84,0.00,,,0.00,0,Wunderground v.1.15,2013-02-02 11:25:00,
2013-02-02 04:30:00,18.7,14.7,30.49,NE,40,0.0,0.0,84,0.00,,,0.00,0,Wunderground v.1.15,2013-02-02 11:30:00,
2013-02-02 04:35:00,18.5,14.5,30.49,NE,40,0.0,0.0,84,0.00,,,0.00,0,Wunderground v.1.15,2013-02-02 11:35:00,
2013-02-02 04:40:00,18.5,14.5,30.49,NE,40,0.0,0.0,84,0.00,,,0.00,0,Wunderground v.1.15,2013-02-02 11:40:00,
2013-02-02 04:45:00,18.3,14.3,30.49,NE,40,0.0,0.0,84,0.00,,,0.00,0,Wunderground v.1.15,2013-02-02 11:45:00,
2013-02-02 04:50:00,18.2,14.2,30.49,NE,40,0.0,0.0,84,0.00,,,0.00,0,Wunderground v.1.15,2013-02-02 11:50:00,
2013-02-02 04:55:00,18.2,14.2,30.49,NE,40,0.0,0.0,84,0.00,,,0.00,0,Wunderground v.1.15,2013-02-02 11:55:00,
2013-02-02 05:00:00,18.2,14.2,30.49,NE,40,0.0,0.0,84,0.00,,,0.00,0,Wunderground v.1.15,2013-02-02 12:00:00,
2013-02-02 05:05:00,18.0,14.0,30.49,NE,40,0.0,0.0,84,0.00,,,0.00,0,Wunderground v.1.15,2013-02-02 12:05:00,
2013-02-02 05:10:00,18.1,14.1,30.49,NE,40,0.0,0.0,84,0.00,,,0.00,0,Wunderground v.1.15,2013-02-02 12:10:00,
2013-02-02 05:15:00,18.3,14.5,30.48,NE,40,0.0,0.0,85,0.00,,,0.00,0,Wunderground v.1.15,2013-02-02 12:15:00,
2013-02-02 05:20:00,18.3,14.3,30.49,NE,40,0.0,0.0,84,0.00,,,0.00,0,Wunderground v.1.15,2013-02-02 12:20:00,
2013-02-02 05:25:00,18.4,14.6,30.49,NE,40,0.0,0.0,85,0.00,,,0.00,0,Wunderground v.1.15,2013-02-02 12:25:00,
2013-02-02 05:30:00,18.4,14.4,30.48,NE,40,0.0,0.0,84,0.00,,,0.00,0,Wunderground v.1.15,2013-02-02 12:30:00,
2013-02-02 05:35:00,18.4,14.4,30.48,NE,40,0.0,0.0,84,0.00,,,0.00,0,Wunderground v.1.15,2013-02-02 12:35:00,
2013-02-02 05:40:00,18.4,14.4,30.48,NE,40,0.0,0.0,84,0.00,,,0.00,0,Wunderground v.1.15,2013-02-02 12:40:00,
2013-02-02 05:45:00,18.3,14.3,30.48,NE,40,0.0,0.0,84,0.00,,,0.00,0,Wunderground v.1.15,2013-02-02 12:45:00,
2013-02-02 05:50:00,18.3,14.3,30.48,NE,40,0.0,0.0,84,0.00,,,0.00,0,Wunderground v.1.15,2013-02-02 12:50:00,
2013-02-02 05:55:00,18.2,14.2,30.48,NE,40,0.0,0.0,84,0.00,,,0.00,0,Wunderground v.1.15,2013-02-02 12:55:00,
2013-02-02 06:00:00,18.1,14.1,30.48,NE,40,0.0,0.0,84,0.00,,,0.00,0,Wunderground v.1.15,2013-02-02 13:00:00,
2013-02-02 06:05:00,18.0,14.0,30.48,NE,40,0.0,0.0,84,0.00,,,0.00,0,Wunderground v.1.15,2013-02-02 13:05:00,
2013-02-02 06:10:00,17.9,13.9,30.48,NE,40,0.0,0.0,84,0.00,,,0.00,0,Wunderground v.1.15,2013-02-02 13:10:00,
2013-02-02 06:15:00,18.0,14.0,30.48,NE,40,0.0,0.0,84,0.00,,,0.00,0,Wunderground v.1.15,2013-02-02 13:15:00,
2013-02-02 06:20:00,18.4,14.6,30.48,NE,40,0.0,0.0,85,0.00,,,0.00,0,Wunderground v.1.15,2013-02-02 13:20:00,
2013-02-02 06:25:00,18.6,14.6,30.49,NE,40,0.0,0.0,84,0.00,,,0.00,0,Wunderground v.1.15,2013-02-02 13:25:00,
2013-02-02 06:30:00,18.5,14.5,30.49,NE,40,0.0,0.0,84,0.00,,,0.00,0,Wunderground v.1.15,2013-02-02 13:30:00,
2013-02-02 06:35:00,18.5,14.5,30.48,NE,40,0.0,0.0,84,0.00,,,0.00,0,Wunderground v.1.15,2013-02-02 13:35:00,
2013-02-02 06:40:00,18.6,14.6,30.48,NE,40,0.0,0.0,84,0.00,,,0.00,0,Wunderground v.1.15,2013-02-02 13:40:00,
2013-02-02 06:45:00,18.7,14.7,30.48,NE,40,0.0,0.0,84,0.00,,,0.00,0,Wunderground v.1.15,2013-02-02 13:45:00,
2013-02-02 06:50:00,18.7,14.7,30.48,NE,40,0.0,0.0,84,0.00,,,0.00,0,Wunderground v.1.15,2013-02-02 13:50:00,
2013-02-02 06:55:00,18.7,14.7,30.48,NE,40,0.0,0.0,84,0.00,,,0.00,0,Wunderground v.1.15,2013-02-02 13:55:00,
2013-02-02 07:01:00,18.6,14.6,30.48,NE,40,0.0,0.0,84,0.00,,,0.00,0,Wunderground v.1.15,2013-02-02 14:01:00,
2013-02-02 07:06:00,18.6,14.6,30.49,NE,40,0.0,0.0,84,0.00,,,0.00,0,Wunderground v.1.15,2013-02-02 14:06:00,
2013-02-02 07:11:00,18.4,14.4,30.49,NE,40,0.0,0.0,84,0.00,,,0.00,0,Wunderground v.1.15,2013-02-02 14:11:00,
2013-02-02 07:16:00,18.3,14.3,30.49,NE,40,0.0,0.0,84,0.00,,,0.00,0,Wunderground v.1.15,2013-02-02 14:16:00,
2013-02-02 07:21:00,18.5,14.5,30.49,NE,40,0.0,0.0,84,0.00,,,0.00,0,Wunderground v.1.15,2013-02-02 14:21:00,
2013-02-02 07:26:00,18.6,14.6,30.50,NE,40,0.0,0.0,84,0.00,,,0.00,0,Wunderground v.1.15,2013-02-02 14:26:00,
2013-02-02 07:31:00,18.6,14.6,30.49,NE,40,0.0,0.0,84,0.00,,,0.00,9,Wunderground v.1.15,2013-02-02 14:31:00,
2013-02-02 07:36:00,18.6,14.6,30.50,NE,40,0.0,0.0,84,0.00,,,0.00,12,Wunderground v.1.15,2013-02-02 14:36:00,
2013-02-02 07:41:00,18.8,14.8,30.50,NE,40,0.0,0.0,84,0.00,,,0.00,19,Wunderground v.1.15,2013-02-02 14:41:00,
2013-02-02 07:46:00,18.8,14.8,30.50,NE,40,0.0,0.0,84,0.00,,,0.00,26,Wunderground v.1.15,2013-02-02 14:46:00,
2013-02-02 07:51:00,18.9,14.9,30.50,NE,40,0.0,0.0,84,0.00,,,0.00,32,Wunderground v.1.15,2013-02-02 14:51:00,
2013-02-02 07:56:00,18.9,14.9,30.50,NE,40,0.0,0.0,84,0.00,,,0.00,40,Wunderground v.1.15,2013-02-02 14:56:00,
2013-02-02 08:01:00,19.1,15.1,30.51,NE,40,0.0,0.0,84,0.00,,,0.00,56,Wunderground v.1.15,2013-02-02 15:01:00,
2013-02-02 08:06:00,19.7,15.6,30.51,NE,40,0.0,0.0,84,0.00,,,0.00,77,Wunderground v.1.15,2013-02-02 15:06:00,
2013-02-02 08:11:00,20.1,16.0,30.51,NE,40,0.0,0.0,84,0.00,,,0.00,84,Wunderground v.1.15,2013-02-02 15:11:00,
2013-02-02 08:16:00,20.7,16.6,30.51,NE,40,0.0,0.0,84,0.00,,,0.00,98,Wunderground v.1.15,2013-02-02 15:16:00,
2013-02-02 08:21:00,21.4,17.6,30.51,NE,40,0.0,0.0,85,0.00,,,0.00,102,Wunderground v.1.15,2013-02-02 15:21:00,
2013-02-02 08:26:00,22.2,18.4,30.51,NE,40,0.0,0.0,85,0.00,,,0.00,141,Wunderground v.1.15,2013-02-02 15:26:00,
2013-02-02 08:31:00,23.3,19.5,30.51,NE,40,0.0,0.0,85,0.00,,,0.00,176,Wunderground v.1.15,2013-02-02 15:31:00,
2013-02-02 08:36:00,24.4,20.5,30.51,NE,40,0.0,0.0,85,0.00,,,0.00,156,Wunderground v.1.15,2013-02-02 15:36:00,
2013-02-02 08:41:00,25.2,21.0,30.51,NE,40,0.0,0.0,84,0.00,,,0.00,202,Wunderground v.1.15,2013-02-02 15:41:00,
2013-02-02 08:46:00,25.7,21.3,30.52,NE,40,0.0,0.0,83,0.00,,,0.00,200,Wunderground v.1.15,2013-02-02 15:46:00,
2013-02-02 08:51:00,27.0,22.5,30.51,NE,40,0.0,0.0,83,0.00,,,0.00,232,Wunderground v.1.15,2013-02-02 15:51:00,
2013-02-02 08:56:00,28.2,23.4,30.52,NE,40,0.0,0.0,82,0.00,,,0.00,260,Wunderground v.1.15,2013-02-02 15:56:00,
2013-02-02 09:02:00,29.6,24.2,30.52,NE,40,0.0,0.0,80,0.00,,,0.00,265,Wunderground v.1.15,2013-02-02 16:02:00,
2013-02-02 09:07:00,30.5,24.8,30.52,NE,40,0.0,0.0,79,0.00,,,0.00,220,Wunderground v.1.15,2013-02-02 16:07:00,
2013-02-02 09:12:00,31.3,24.9,30.51,NE,40,0.0,0.0,77,0.00,,,0.00,246,Wunderground v.1.15,2013-02-02 16:12:00,
2013-02-02 09:17:00,32.7,26.0,30.52,NE,40,0.0,0.0,76,0.00,,,0.00,301,Wunderground v.1.15,2013-02-02 16:17:00,
2013-02-02 09:22:00,33.7,26.6,30.52,NE,40,0.0,0.0,75,0.00,,,0.00,306,Wunderground v.1.15,2013-02-02 16:22:00,
2013-02-02 09:27:00,34.4,27.0,30.52,NE,40,0.0,0.0,74,0.00,,,0.00,313,Wunderground v.1.15,2013-02-02 16:27:00,
2013-02-02 09:32:00,35.3,27.5,30.51,NE,40,0.0,0.0,73,0.00,,,0.00,369,Wunderground v.1.15,2013-02-02 16:32:00,
2013-02-02 09:37:00,36.4,28.2,30.51,NE,40,0.0,0.0,72,0.00,,,0.00,373,Wunderground v.1.15,2013-02-02 16:37:00,
2013-02-02 09:42:00,37.3,28.4,30.51,NE,40,0.0,0.0,70,0.00,,,0.00,373,Wunderground v.1.15,2013-02-02 16:42:00,
2013-02-02 09:47:00,37.5,28.2,30.51,NE,40,0.0,0.0,69,0.00,,,0.00,357,Wunderground v.1.15,2013-02-02 16:47:00,
2013-02-02 09:52:00,38.0,28.7,30.51,NE,40,0.0,0.0,69,0.00,,,0.00,373,Wunderground v.1.15,2013-02-02 16:52:00,
2013-02-02 09:57:00,38.7,29.4,30.51,NE,40,0.0,0.0,69,0.00,,,0.00,394,Wunderground v.1.15,2013-02-02 16:57:00,
2013-02-02 10:02:00,40.1,30.4,30.51,NE,40,0.0,0.0,68,0.00,,,0.00,420,Wunderground v.1.15,2013-02-02 17:02:00,
2013-02-02 10:07:00,41.4,30.5,30.51,NE,40,0.0,0.0,65,0.00,,,0.00,424,Wunderground v.1.15,2013-02-02 17:07:00,
2013-02-02 10:12:00,42.1,30.0,30.51,NE,40,0.0,0.0,62,0.00,,,0.00,431,Wunderground v.1.15,2013-02-02 17:12:00,
2013-02-02 10:17:00,42.9,30.4,30.51,NE,40,0.0,0.0,61,0.00,,,0.00,469,Wunderground v.1.15,2013-02-02 17:17:00,
2013-02-02 10:22:00,43.3,29.9,30.51,NE,40,0.0,0.0,59,0.00,,,0.00,478,Wunderground v.1.15,2013-02-02 17:22:00,
2013-02-02 10:27:00,43.4,28.7,30.50,NE,40,0.0,0.0,56,0.00,,,0.00,482,Wunderground v.1.15,2013-02-02 17:27:00,
2013-02-02 10:32:00,43.8,28.2,30.50,NE,40,0.0,0.0,54,0.00,,,0.00,494,Wunderground v.1.15,2013-02-02 17:32:00,
2013-02-02 10:37:00,44.3,27.8,30.50,NE,40,0.0,0.0,52,0.00,,,0.00,501,Wunderground v.1.15,2013-02-02 17:37:00,
2013-02-02 10:42:00,44.7,27.2,30.50,NE,40,0.0,0.0,50,0.00,,,0.00,524,Wunderground v.1.15,2013-02-02 17:42:00,
2013-02-02 10:47:00,45.3,27.2,30.50,NE,40,0.0,0.0,49,0.00,,,0.00,545,Wunderground v.1.15,2013-02-02 17:47:00,
2013-02-02 10:52:00,46.1,25.9,30.50,NE,40,0.0,0.0,45,0.00,,,0.00,554,Wunderground v.1.15,2013-02-02 17:52:00,
2013-02-02 10:57:00,46.1,25.9,30.50,NE,40,0.0,0.0,45,0.00,,,0.00,557,Wunderground v.1.15,2013-02-02 17:57:00,
2013-02-02 11:02:00,46.4,25.1,30.50,NE,40,0.0,0.0,43,0.00,,,0.00,555,Wunderground v.1.15,2013-02-02 18:02:00,
2013-02-02 11:07:00,46.7,24.8,30.50,NE,40,0.0,0.0,42,0.00,,,0.00,571,Wunderground v.1.15,2013-02-02 18:07:00,
2013-02-02 11:12:00,46.8,26.0,30.50,NE,40,0.0,0.0,44,0.00,,,0.00,555,Wunderground v.1.15,2013-02-02 18:12:00,
2013-02-02 11:17:00,47.2,25.3,30.50,NE,42,0.0,0.0,42,0.00,,,0.00,566,Wunderground v.1.15,2013-02-02 18:17:00,
2013-02-02 11:22:00,47.4,25.4,30.50,NE,42,0.0,0.0,42,0.00,,,0.00,592,Wunderground v.1.15,2013-02-02 18:22:00,
2013-02-02 11:27:00,47.9,26.5,30.50,NE,42,0.0,0.0,43,0.00,,,0.00,615,Wunderground v.1.15,2013-02-02 18:27:00,
2013-02-02 11:32:00,48.1,26.1,30.50,SSE,153,0.0,1.0,42,0.00,,,0.00,591,Wunderground v.1.15,2013-02-02 18:32:00,
2013-02-02 11:37:00,48.3,25.7,30.49,SE,140,0.0,1.0,41,0.00,,,0.00,603,Wunderground v.1.15,2013-02-02 18:37:00,
2013-02-02 11:42:00,48.3,26.2,30.49,SE,140,0.0,0.0,42,0.00,,,0.00,568,Wunderground v.1.15,2013-02-02 18:42:00,
2013-02-02 11:47:00,48.3,25.1,30.49,South,178,0.0,0.0,40,0.00,,,0.00,575,Wunderground v.1.15,2013-02-02 18:47:00,
2013-02-02 11:52:00,48.4,26.3,30.49,ESE,110,0.0,18.0,42,0.00,,,0.01,547,Wunderground v.1.15,2013-02-02 18:52:00,
2013-02-02 11:57:00,48.1,24.9,30.49,East,94,0.0,18.0,40,0.00,,,0.01,615,Wunderground v.1.15,2013-02-02 18:57:00,
2013-02-02 12:02:00,48.3,25.1,30.49,ESE,122,0.0,2.0,40,0.00,,,0.01,612,Wunderground v.1.15,2013-02-02 19:02:00,
2013-02-02 12:07:00,48.0,25.4,30.49,ESE,119,0.0,5.0,41,0.00,,,0.01,615,Wunderground v.1.15,2013-02-02 19:07:00,
2013-02-02 12:12:00,48.1,26.1,30.48,SSE,168,0.0,0.0,42,0.00,,,0.01,638,Wunderground v.1.15,2013-02-02 19:12:00,
2013-02-02 12:17:00,48.9,26.8,30.48,South,178,0.0,0.0,42,0.00,,,0.01,640,Wunderground v.1.15,2013-02-02 19:17:00,
2013-02-02 12:22:00,48.9,26.8,30.48,ESE,105,0.0,7.0,42,0.00,,,0.01,636,Wunderground v.1.15,2013-02-02 19:22:00,
2013-02-02 12:27:00,49.2,27.1,30.48,South,180,0.0,7.0,42,0.00,,,0.01,636,Wunderground v.1.15,2013-02-02 19:27:00,
2013-02-02 12:32:00,49.3,26.0,30.48,SSE,161,0.0,0.0,40,0.00,,,0.01,635,Wunderground v.1.15,2013-02-02 19:32:00,
2013-02-02 12:37:00,49.6,25.6,30.47,SE,141,0.0,3.0,39,0.00,,,0.01,610,Wunderground v.1.15,2013-02-02 19:37:00,
2013-02-02 12:42:00,49.8,27.0,30.47,ENE,69,2.0,3.0,41,0.00,,,0.01,605,Wunderground v.1.15,2013-02-02 19:42:00,
2013-02-02 12:47:00,49.6,26.2,30.47,ESE,120,0.0,4.0,40,0.00,,,0.01,599,Wunderground v.1.15,2013-02-02 19:47:00,
2013-02-02 12:52:00,49.6,26.2,30.46,ESE,110,0.0,2.0,40,0.00,,,0.01,642,Wunderground v.1.15,2013-02-02 19:52:00,
2013-02-02 12:57:00,49.5,26.7,30.46,East,98,0.0,3.0,41,0.00,,,0.01,640,Wunderground v.1.15,2013-02-02 19:57:00,
2013-02-02 13:03:00,49.4,26.1,30.46,East,94,0.0,5.0,40,0.00,,,0.01,629,Wunderground v.1.15,2013-02-02 20:03:00,
2013-02-02 13:08:00,49.4,27.2,30.45,ENE,63,1.0,5.0,42,0.00,,,0.01,615,Wunderground v.1.15,2013-02-02 20:08:00,
2013-02-02 13:13:00,49.3,26.6,30.45,ESE,105,0.0,9.0,41,0.00,,,0.01,628,Wunderground v.1.15,2013-02-02 20:13:00,
2013-02-02 13:18:00,49.5,26.1,30.45,East,99,0.0,9.0,40,0.00,,,0.01,543,Wunderground v.1.15,2013-02-02 20:18:00,
2013-02-02 13:23:00,49.4,25.4,30.45,ESE,103,0.0,3.0,39,0.00,,,0.01,605,Wunderground v.1.15,2013-02-02 20:23:00,
2013-02-02 13:28:00,49.5,24.3,30.45,ESE,120,0.0,3.0,37,0.00,,,0.01,603,Wunderground v.1.15,2013-02-02 20:28:00,
2013-02-02 13:33:00,49.8,25.2,30.44,ESE,114,0.0,2.0,38,0.00,,,0.01,596,Wunderground v.1.15,2013-02-02 20:33:00,
2013-02-02 13:38:00,49.8,24.5,30.44,ESE,121,0.0,6.0,37,0.00,,,0.01,601,Wunderground v.1.15,2013-02-02 20:38:00,
2013-02-02 13:43:00,50.3,25.6,30.44,SE,133,0.0,2.0,38,0.00,,,0.01,610,Wunderground v.1.15,2013-02-02 20:43:00,
2013-02-02 13:48:00,50.6,25.3,30.44,ESE,123,0.0,5.0,37,0.00,,,0.01,594,Wunderground v.1.15,2013-02-02 20:48:00,
2013-02-02 13:53:00,50.7,27.2,30.43,ESE,103,3.0,5.0,40,0.00,,,0.01,529,Wunderground v.1.15,2013-02-02 20:53:00,
2013-02-02 13:58:00,50.5,27.0,30.43,ESE,115,0.0,5.0,40,0.00,,,0.01,503,Wunderground v.1.15,2013-02-02 20:58:00,
2013-02-02 14:03:00,50.2,27.4,30.43,ESE,104,3.0,5.0,41,0.00,,,0.01,482,Wunderground v.1.15,2013-02-02 21:03:00,
2013-02-02 14:08:00,50.2,28.5,30.43,ESE,109,2.0,5.0,43,0.00,,,0.01,457,Wunderground v.1.15,2013-02-02 21:08:00,
2013-02-02 14:13:00,50.1,27.9,30.43,ESE,118,3.0,4.0,42,0.00,,,0.01,480,Wunderground v.1.15,2013-02-02 21:13:00,
2013-02-02 14:18:00,49.9,28.3,30.43,ESE,123,0.0,5.0,43,0.00,,,0.01,512,Wunderground v.1.15,2013-02-02 21:18:00,
2013-02-02 14:24:00,50.0,28.9,30.43,ESE,104,3.0,5.0,44,0.00,,,0.01,492,Wunderground v.1.15,2013-02-02 21:24:00,
2013-02-02 14:29:00,49.9,28.8,30.43,ESE,105,8.0,10.0,44,0.00,,,0.01,522,Wunderground v.1.15,2013-02-02 21:29:00,
2013-02-02 14:34:00,50.1,28.4,30.42,SE,130,3.0,5.0,43,0.00,,,0.01,540,Wunderground v.1.15,2013-02-02 21:34:00,
2013-02-02 14:39:00,50.2,28.0,30.42,ESE,111,0.0,5.0,42,0.00,,,0.01,508,Wunderground v.1.15,2013-02-02 21:39:00,
2013-02-02 14:44:00,50.1,28.4,30.42,East,93,1.0,9.0,43,0.00,,,0.01,473,Wunderground v.1.15,2013-02-02 21:44:00,
2013-02-02 14:49:00,50.0,28.4,30.42,East,85,2.0,9.0,43,0.00,,,0.01,466,Wunderground v.1.15,2013-02-02 21:49:00,
2013-02-02 14:54:00,49.8,28.7,30.42,ESE,105,1.0,8.0,44,0.00,,,0.01,492,Wunderground v.1.15,2013-02-02 21:54:00,
2013-02-02 14:59:00,50.0,28.9,30.41,East,82,3.0,9.0,44,0.00,,,0.01,478,Wunderground v.1.15,2013-02-02 21:59:00,
2013-02-02 15:04:00,50.1,28.4,30.41,SE,137,0.0,3.0,43,0.00,,,0.01,457,Wunderground v.1.15,2013-02-02 22:04:00,
2013-02-02 15:09:00,50.1,27.9,30.41,ESE,111,0.0,7.0,42,0.00,,,0.01,457,Wunderground v.1.15,2013-02-02 22:09:00,
2013-02-02 15:14:00,49.9,27.7,30.41,SE,127,3.0,4.0,42,0.00,,,0.01,424,Wunderground v.1.15,2013-02-02 22:14:00,
2013-02-02 15:19:00,50.0,27.8,30.41,ESE,119,0.0,4.0,42,0.00,,,0.01,431,Wunderground v.1.15,2013-02-02 22:19:00,
2013-02-02 15:24:00,50.0,27.8,30.41,East,96,0.0,5.0,42,0.00,,,0.01,397,Wunderground v.1.15,2013-02-02 22:24:00,
2013-02-02 15:29:00,49.8,27.6,30.41,SE,131,5.0,11.0,42,0.00,,,0.01,367,Wunderground v.1.15,2013-02-02 22:29:00,
2013-02-02 15:34:00,49.7,28.1,30.41,East,101,0.0,8.0,43,0.00,,,0.01,334,Wunderground v.1.15,2013-02-02 22:34:00,
2013-02-02 15:39:00,49.4,26.7,30.41,ESE,111,1.0,8.0,41,0.00,,,0.01,318,Wunderground v.1.15,2013-02-02 22:39:00,
2013-02-02 15:44:00,49.1,27.5,30.41,East,101,0.0,4.0,43,0.00,,,0.01,269,Wunderground v.1.15,2013-02-02 22:44:00,
2013-02-02 15:49:00,49.0,27.5,30.42,East,94,3.0,4.0,43,0.00,,,0.01,306,Wunderground v.1.15,2013-02-02 22:49:00,
2013-02-02 15:54:00,48.9,27.4,30.41,ESE,109,0.0,6.0,43,0.00,,,0.01,301,Wunderground v.1.15,2013-02-02 22:54:00,
2013-02-02 15:59:00,48.8,26.1,30.41,East,98,0.0,6.0,41,0.00,,,0.01,290,Wunderground v.1.15,2013-02-02 22:59:00,
2013-02-02 16:04:00,48.6,26.5,30.41,East,98,5.0,5.0,42,0.00,,,0.01,262,Wunderground v.1.15,2013-02-02 23:04:00,
2013-02-02 16:09:00,48.1,25.5,30.41,ESE,103,0.0,5.0,41,0.00,,,0.01,223,Wunderground v.1.15,2013-02-02 23:09:00,
2013-02-02 16:14:00,47.9,25.9,30.41,ESE,113,0.0,3.0,42,0.00,,,0.01,221,Wunderground v.1.15,2013-02-02 23:14:00,
2013-02-02 16:19:00,47.8,26.4,30.41,ESE,103,0.0,6.0,43,0.00,,,0.01,190,Wunderground v.1.15,2013-02-02 23:19:00,
2013-02-02 16:24:00,47.8,26.4,30.42,ESE,122,0.0,4.0,43,0.00,,,0.01,221,Wunderground v.1.15,2013-02-02 23:24:00,
2013-02-02 16:29:00,47.8,26.4,30.42,ESE,109,0.0,4.0,43,0.00,,,0.01,209,Wunderground v.1.15,2013-02-02 23:29:00,
2013-02-02 16:34:00,47.5,26.1,30.42,East,101,0.0,4.0,43,0.00,,,0.01,183,Wunderground v.1.15,2013-02-02 23:34:00,
2013-02-02 16:39:00,47.3,25.9,30.42,ESE,105,4.0,7.0,43,0.00,,,0.01,139,Wunderground v.1.15,2013-02-02 23:39:00,
2013-02-02 16:44:00,46.9,25.5,30.42,ESE,119,0.0,4.0,43,0.00,,,0.01,127,Wunderground v.1.15,2013-02-02 23:44:00,
2013-02-02 16:49:00,46.7,26.5,30.41,ESE,105,0.0,4.0,45,0.00,,,0.01,104,Wunderground v.1.15,2013-02-02 23:49:00,
2013-02-02 16:54:00,46.4,25.6,30.42,ESE,105,0.0,0.0,44,0.00,,,0.01,93,Wunderground v.1.15,2013-02-02 23:54:00,
2013-02-02 16:59:00,46.2,26.0,30.42,ESE,113,0.0,0.0,45,0.00,,,0.01,97,Wunderground v.1.15,2013-02-02 23:59:00,
2013-02-02 17:04:00,46.0,26.4,30.41,ESE,107,0.0,0.0,46,0.00,,,0.01,104,Wunderground v.1.15,2013-02-03 00:04:00,
2013-02-02 17:09:00,46.0,25.8,30.41,ESE,107,0.0,0.0,45,0.00,,,0.01,88,Wunderground v.1.15,2013-02-03 00:09:00,
2013-02-02 17:14:00,45.8,25.6,30.41,ESE,107,0.0,0.0,45,0.00,,,0.01,74,Wunderground v.1.15,2013-02-03 00:14:00,
2013-02-02 17:19:00,45.6,26.0,30.41,ESE,108,0.0,0.0,46,0.00,,,0.01,56,Wunderground v.1.15,2013-02-03 00:19:00,
2013-02-02 17:24:00,45.2,25.6,30.41,ESE,107,0.0,0.0,46,0.00,,,0.01,42,Wunderground v.1.15,2013-02-03 00:24:00,
2013-02-02 17:29:00,44.8,25.8,30.41,ESE,107,0.0,0.0,47,0.00,,,0.01,30,Wunderground v.1.15,2013-02-03 00:29:00,
2013-02-02 17:34:00,44.0,26.0,30.41,ESE,107,0.0,0.0,49,0.00,,,0.01,23,Wunderground v.1.15,2013-02-03 00:34:00,
2013-02-02 17:39:00,42.9,25.5,30.41,East,80,0.0,0.0,50,0.00,,,0.01,18,Wunderground v.1.15,2013-02-03 00:39:00,
2013-02-02 17:44:00,42.3,25.4,30.41,East,80,0.0,0.0,51,0.00,,,0.01,12,Wunderground v.1.15,2013-02-03 00:44:00,
2013-02-02 17:49:00,41.7,25.4,30.42,East,80,0.0,0.0,52,0.00,,,0.01,7,Wunderground v.1.15,2013-02-03 00:49:00,
2013-02-02 17:54:00,41.3,25.0,30.42,East,80,0.0,0.0,52,0.00,,,0.01,0,Wunderground v.1.15,2013-02-03 00:54:00,
2013-02-02 17:59:00,41.2,24.9,30.42,East,80,0.0,0.0,52,0.00,,,0.01,0,Wunderground v.1.15,2013-02-03 00:59:00,
2013-02-02 18:04:00,41.0,25.2,30.41,East,80,0.0,0.0,53,0.00,,,0.01,0,Wunderground v.1.15,2013-02-03 01:04:00,
2013-02-02 18:09:00,40.7,24.9,30.41,East,80,0.0,0.0,53,0.00,,,0.01,0,Wunderground v.1.15,2013-02-03 01:09:00,
2013-02-02 18:14:00,40.3,25.0,30.41,East,80,0.0,0.0,54,0.00,,,0.01,0,Wunderground v.1.15,2013-02-03 01:14:00,
2013-02-02 18:19:00,39.9,24.6,30.42,East,80,0.0,0.0,54,0.00,,,0.01,0,Wunderground v.1.15,2013-02-03 01:19:00,
2013-02-02 18:24:00,39.4,24.6,30.42,East,80,0.0,0.0,55,0.00,,,0.01,0,Wunderground v.1.15,2013-02-03 01:24:00,
2013-02-02 18:29:00,38.7,24.3,30.42,East,80,0.0,0.0,56,0.00,,,0.01,0,Wunderground v.1.15,2013-02-03 01:29:00,
2013-02-02 18:34:00,38.2,24.3,30.42,East,80,0.0,0.0,57,0.00,,,0.01,0,Wunderground v.1.15,2013-02-03 01:34:00,
2013-02-02 18:39:00,37.7,23.8,30.42,East,80,0.0,0.0,57,0.00,,,0.01,0,Wunderground v.1.15,2013-02-03 01:39:00,
2013-02-02 18:44:00,37.2,24.2,30.42,East,80,0.0,0.0,59,0.00,,,0.01,0,Wunderground v.1.15,2013-02-03 01:44:00,
2013-02-02 18:49:00,36.4,23.8,30.42,East,80,0.0,0.0,60,0.00,,,0.01,0,Wunderground v.1.15,2013-02-03 01:49:00,
2013-02-02 18:54:00,35.5,24.1,30.43,East,80,0.0,0.0,63,0.00,,,0.01,0,Wunderground v.1.15,2013-02-03 01:54:00,
2013-02-02 18:59:00,34.6,24.4,30.43,East,80,0.0,0.0,66,0.00,,,0.01,0,Wunderground v.1.15,2013-02-03 01:59:00,
2013-02-02 19:04:00,33.8,24.0,30.43,East,80,0.0,0.0,67,0.00,,,0.01,0,Wunderground v.1.15,2013-02-03 02:04:00,
2013-02-02 19:09:00,33.2,24.1,30.43,East,80,0.0,0.0,69,0.00,,,0.01,0,Wunderground v.1.15,2013-02-03 02:09:00,
2013-02-02 19:14:00,32.8,23.7,30.43,East,80,0.0,0.0,69,0.00,,,0.01,0,Wunderground v.1.15,2013-02-03 02:14:00,
2013-02-02 19:19:00,32.3,23.6,30.43,East,80,0.0,0.0,70,0.00,,,0.01,0,Wunderground v.1.15,2013-02-03 02:19:00,
2013-02-02 19:25:00,31.6,22.9,30.43,East,80,0.0,0.0,70,0.00,,,0.01,0,Wunderground v.1.15,2013-02-03 02:25:00,
2013-02-02 19:30:00,30.8,22.2,30.44,East,80,0.0,0.0,70,0.00,,,0.01,0,Wunderground v.1.15,2013-02-03 02:30:00,
2013-02-02 19:35:00,29.7,21.4,30.44,East,80,0.0,0.0,71,0.00,,,0.01,0,Wunderground v.1.15,2013-02-03 02:35:00,
2013-02-02 19:40:00,28.9,21.3,30.44,East,80,0.0,0.0,73,0.00,,,0.01,0,Wunderground v.1.15,2013-02-03 02:40:00,
2013-02-02 19:45:00,28.9,22.0,30.44,East,80,0.0,0.0,75,0.00,,,0.01,0,Wunderground v.1.15,2013-02-03 02:45:00,
2013-02-02 19:50:00,29.2,22.3,30.44,East,80,0.0,0.0,75,0.00,,,0.01,0,Wunderground v.1.15,2013-02-03 02:50:00,
2013-02-02 19:55:00,29.3,22.4,30.44,East,80,0.0,0.0,75,0.00,,,0.01,0,Wunderground v.1.15,2013-02-03 02:55:00,
2013-02-02 20:00:00,29.2,21.9,30.44,East,80,0.0,0.0,74,0.00,,,0.01,0,Wunderground v.1.15,2013-02-03 03:00:00,
2013-02-02 20:05:00,28.9,21.7,30.43,East,80,0.0,0.0,74,0.00,,,0.01,0,Wunderground v.1.15,2013-02-03 03:05:00,
2013-02-02 20:10:00,28.4,21.5,30.44,East,80,0.0,0.0,75,0.00,,,0.01,0,Wunderground v.1.15,2013-02-03 03:10:00,
2013-02-02 20:15:00,27.7,21.1,30.44,East,80,0.0,0.0,76,0.00,,,0.01,0,Wunderground v.1.15,2013-02-03 03:15:00,
2013-02-02 20:20:00,27.3,21.0,30.43,East,80,0.0,0.0,77,0.00,,,0.01,0,Wunderground v.1.15,2013-02-03 03:20:00,
2013-02-02 20:25:00,27.1,21.2,30.43,East,80,0.0,0.0,78,0.00,,,0.01,0,Wunderground v.1.15,2013-02-03 03:25:00,
2013-02-02 20:30:00,26.9,21.0,30.44,East,80,0.0,0.0,78,0.00,,,0.01,0,Wunderground v.1.15,2013-02-03 03:30:00,
2013-02-02 20:35:00,27.0,21.4,30.44,East,80,0.0,0.0,79,0.00,,,0.01,0,Wunderground v.1.15,2013-02-03 03:35:00,
2013-02-02 20:40:00,26.9,21.3,30.44,East,80,0.0,0.0,79,0.00,,,0.01,0,Wunderground v.1.15,2013-02-03 03:40:00,
2013-02-02 20:45:00,27.0,21.4,30.43,East,80,0.0,0.0,79,0.00,,,0.01,0,Wunderground v.1.15,2013-02-03 03:45:00,
2013-02-02 20:50:00,27.1,21.5,30.43,East,80,0.0,0.0,79,0.00,,,0.01,0,Wunderground v.1.15,2013-02-03 03:50:00,
2013-02-02 20:55:00,27.3,21.6,30.43,East,80,0.0,0.0,79,0.00,,,0.01,0,Wunderground v.1.15,2013-02-03 03:55:00,
2013-02-02 21:00:00,27.0,21.1,30.43,East,80,0.0,0.0,78,0.00,,,0.01,0,Wunderground v.1.15,2013-02-03 04:00:00,
2013-02-02 21:05:00,26.8,21.2,30.43,East,80,0.0,0.0,79,0.00,,,0.01,0,Wunderground v.1.15,2013-02-03 04:05:00,
2013-02-02 21:10:00,26.3,20.7,30.43,East,80,0.0,0.0,79,0.00,,,0.01,0,Wunderground v.1.15,2013-02-03 04:10:00,
2013-02-02 21:15:00,26.0,20.4,30.43,East,80,0.0,0.0,79,0.00,,,0.01,0,Wunderground v.1.15,2013-02-03 04:15:00,
2013-02-02 21:20:00,25.8,20.5,30.43,East,80,0.0,0.0,80,0.00,,,0.01,0,Wunderground v.1.15,2013-02-03 04:20:00,
2013-02-02 21:25:00,25.8,20.5,30.43,East,80,0.0,0.0,80,0.00,,,0.01,0,Wunderground v.1.15,2013-02-03 04:25:00,
2013-02-02 21:30:00,25.7,20.7,30.43,East,80,0.0,0.0,81,0.00,,,0.01,0,Wunderground v.1.15,2013-02-03 04:30:00,
2013-02-02 21:35:00,25.8,20.8,30.43,East,80,0.0,0.0,81,0.00,,,0.01,0,Wunderground v.1.15,2013-02-03 04:35:00,
2013-02-02 21:40:00,25.7,20.7,30.43,East,80,0.0,0.0,81,0.00,,,0.01,0,Wunderground v.1.15,2013-02-03 04:40:00,
2013-02-02 21:45:00,25.6,20.6,30.43,East,80,0.0,0.0,81,0.00,,,0.01,0,Wunderground v.1.15,2013-02-03 04:45:00,
2013-02-02 21:50:00,25.7,21.0,30.43,East,80,0.0,0.0,82,0.00,,,0.01,0,Wunderground v.1.15,2013-02-03 04:50:00,
2013-02-02 21:55:00,25.6,20.6,30.43,East,80,0.0,0.0,81,0.00,,,0.01,0,Wunderground v.1.15,2013-02-03 04:55:00,
2013-02-02 22:00:00,25.4,20.7,30.43,East,80,0.0,0.0,82,0.00,,,0.01,0,Wunderground v.1.15,2013-02-03 05:00:00,
2013-02-02 22:01:00,25.4,20.7,30.43,East,80,0.0,0.0,82,0.00,,,0.01,0,Wunderground v.1.15,2013-02-03 05:01:00,
2013-02-02 22:03:00,25.3,20.6,30.43,East,80,0.0,0.0,82,0.00,,,0.01,0,Wunderground v.1.15,2013-02-03 05:03:00,
2013-02-02 22:04:00,25.3,20.6,30.43,East,80,0.0,0.0,82,0.00,,,0.01,0,Wunderground v.1.15,2013-02-03 05:04:00,
2013-02-02 22:09:00,25.6,20.9,30.43,East,80,0.0,0.0,82,0.00,,,0.01,0,Wunderground v.1.15,2013-02-03 05:09:00,
2013-02-02 22:14:00,25.8,21.1,30.42,East,80,0.0,0.0,82,0.00,,,0.01,0,Wunderground v.1.15,2013-02-03 05:14:00,
2013-02-02 22:19:00,25.7,21.0,30.42,East,80,0.0,0.0,82,0.00,,,0.01,0,Wunderground v.1.15,2013-02-03 05:19:00,
2013-02-02 22:24:00,25.6,20.9,30.42,East,80,0.0,0.0,82,0.00,,,0.01,0,Wunderground v.1.15,2013-02-03 05:24:00,
2013-02-02 22:29:00,25.2,20.5,30.42,East,80,0.0,0.0,82,0.00,,,0.01,0,Wunderground v.1.15,2013-02-03 05:29:00,
2013-02-02 22:34:00,24.9,20.2,30.42,East,80,0.0,0.0,82,0.00,,,0.01,0,Wunderground v.1.15,2013-02-03 05:34:00,
2013-02-02 22:39:00,24.9,20.2,30.42,East,80,0.0,0.0,82,0.00,,,0.01,0,Wunderground v.1.15,2013-02-03 05:39:00,
2013-02-02 22:44:00,25.1,20.7,30.42,East,80,0.0,0.0,83,0.00,,,0.01,0,Wunderground v.1.15,2013-02-03 05:44:00,
2013-02-02 22:49:00,25.2,20.8,30.42,East,80,0.0,0.0,83,0.00,,,0.01,0,Wunderground v.1.15,2013-02-03 05:49:00,
2013-02-02 22:54:00,25.4,21.0,30.42,East,80,0.0,0.0,83,0.00,,,0.01,0,Wunderground v.1.15,2013-02-03 05:54:00,
2013-02-02 22:59:00,25.4,21.0,30.42,East,80,0.0,0.0,83,0.00,,,0.01,0,Wunderground v.1.15,2013-02-03 05:59:00,
2013-02-02 23:04:00,25.6,21.2,30.42,East,80,0.0,0.0,83,0.00,,,0.01,0,Wunderground v.1.15,2013-02-03 06:04:00,
2013-02-02 23:09:00,25.7,21.5,30.42,East,80,0.0,0.0,84,0.00,,,0.01,0,Wunderground v.1.15,2013-02-03 06:09:00,
2013-02-02 23:14:00,25.8,21.6,30.42,East,80,0.0,0.0,84,0.00,,,0.01,0,Wunderground v.1.15,2013-02-03 06:14:00,
2013-02-02 23:19:00,26.0,21.8,30.41,East,80,0.0,0.0,84,0.00,,,0.01,0,Wunderground v.1.15,2013-02-03 06:19:00,
2013-02-02 23:24:00,26.2,22.0,30.41,East,80,0.0,0.0,84,0.00,,,0.01,0,Wunderground v.1.15,2013-02-03 06:24:00,
2013-02-02 23:29:00,26.2,22.0,30.41,East,80,0.0,0.0,84,0.00,,,0.01,0,Wunderground v.1.15,2013-02-03 06:29:00,
2013-02-02 23:34:00,26.3,22.1,30.41,East,80,0.0,0.0,84,0.00,,,0.01,0,Wunderground v.1.15,2013-02-03 06:34:00,
2013-02-02 23:39:00,26.3,22.1,30.41,East,80,0.0,0.0,84,0.00,,,0.01,0,Wunderground v.1.15,2013-02-03 06:39:00,
2013-02-02 23:44:00,26.4,22.2,30.41,East,80,0.0,0.0,84,0.00,,,0.01,0,Wunderground v.1.15,2013-02-03 06:44:00,
2013-02-02 23:49:00,26.4,22.2,30.41,East,80,0.0,0.0,84,0.00,,,0.01,0,Wunderground v.1.15,2013-02-03 06:49:00,
2013-02-02 23:54:00,26.5,22.3,30.41,East,80,0.0,0.0,84,0.00,,,0.01,0,Wunderground v.1.15,2013-02-03 06:54:00,
2013-02-02 23:59:00,26.5,22.3,30.41,East,80,0.0,0.0,84,0.00,,,0.01,0,Wunderground v.1.15,2013-02-03 06:59:00,